SCOUT A R/B, 2967

Orbit data source: Space-Track

SCOUT A R/B, 2967 is space debris in LEO originally from a launch on Mon, 25 Sep 1967 UTC launched from the Air Force Western Test Range (AFWTR). Debris objects in space refer to the collection of defunct objects orbiting the Earth. Examples of debris include non-operational satellites, rocket bodies, and fragments generated from explosions, collisions, or faulty payload assembly.

Loading next visibility...
Identifier
2967, 1967-092B
Orbit
LEO
Country
Flag of USUS
Related business
Manufacturer
ABL
Mission
Spacecraft
Bus & Motor
ALTAIR, Unknown motor
Mass
33 kg wet, 33 kg dry
Launch date (UTC)
1967-09-25 (58 years ago)
Launch vehicle
Unknown
Launch site
Air Force Western Test Range (AFWTR)
Object type
Payload
Rocket body
Debris
Shape & HBR
Cyl, 0.8 m
Radar Cross Section
0.687 m², Medium (>0.1 m² and < 1m²)

Expand to show TLE details & history
Last TLE update: 7 hours ago

TLE from 7 hours ago
0 SCOUT A R/B
1 02967U 67092B   25260.94981115  .00000020  00000-0  12060-4 0  9996
2 02967  89.2504  29.7367 0047102 168.5908 313.4514 13.52347241858137
Epoch: 2025-09-17T22:47Z
TLE epoch observation values (Epoch: 2025-09-17T22:47:43.683Z)
Latitude
58.43536°
Longitude
-130.52774°
Altitude
1,049.558 km
Speed
7.344 km/s
True Right ascension
13h 54m 05s
True Declination
58° 17' 16"
Sunlit
Object was in daylight at epoch
Visualization orbit readout
Latitude
Unknown
Longitude
Unknown
Altitude
Unknown
Speed
Unknown
Apparent Right ascension
Unknown
Apparent Declination
Unknown
Sunlit
N/A
Visualization observer readout
Local Sidereal Time
22:24:59
Azimuth
Unknown
Elevation
Unknown
Doppler factor
Unknown
Orbital elements
Apogee altitude
1,095.721 km
Perigee altitude
1,025.644 km
Semi-major axis
7,438.82 km
Eccentricity
0.00471
Inclination
89.2504°
RAAN
29.7367°
Arg. of periapsis
168.5908°
True anomaly
313.05798°
Mean anomaly
313.4514°
Eccentric anomaly
313.25485°
Mean motion
3.38288 °/min
Orbital period
106.42 mins
BSTAR
0.00001206
Loading maneuver chart data...
Computing Atmospheric mass density...
Loading historical data...
Loading historical data...
Loading historical data...
Loading historical data...
Loading historical data...
Loading historical data...
Loading historical data...

Documentation

Showing up to 5 results
|